Time,TemperatureF,DewpointF,PressureIn,WindDirection,WindDirectionDegrees,WindSpeedMPH,WindSpeedGustMPH,Humidity,HourlyPrecipIn,Conditions,Clouds,dailyrainin,SoftwareType,DateUTC
2013-02-13 00:01:00,48.0,42.0,29.77,ESE,113,3.0,4.0,80,0.00,,,0.03,,2013-02-13 08:01:00,
2013-02-13 00:11:00,48.0,42.0,29.77,ESE,113,3.0,4.0,80,0.00,,,0.03,,2013-02-13 08:11:00,
2013-02-13 00:21:00,48.0,42.0,29.77,ENE,68,3.0,7.0,79,0.00,,,0.03,,2013-02-13 08:21:00,
2013-02-13 00:31:00,48.0,42.0,29.77,South,180,3.0,7.0,79,0.00,,,0.03,,2013-02-13 08:31:00,
2013-02-13 00:42:00,48.0,42.0,29.77,South,180,3.0,7.0,79,0.00,,,0.03,,2013-02-13 08:42:00,
2013-02-13 00:52:00,48.0,42.0,29.80,East,90,2.0,3.0,79,0.00,,,0.03,,2013-02-13 08:52:00,
2013-02-13 01:01:00,48.0,42.0,29.80,WNW,293,2.0,3.0,79,0.00,,,0.03,,2013-02-13 09:01:00,
2013-02-13 01:11:00,48.0,42.0,29.80,WNW,293,2.0,3.0,79,0.00,,,0.03,,2013-02-13 09:11:00,
2013-02-13 01:21:00,48.0,42.0,29.81,South,180,1.0,2.0,79,0.00,,,0.03,,2013-02-13 09:21:00,
2013-02-13 01:31:00,48.0,42.0,29.81,SSW,203,2.0,3.0,79,0.00,,,0.03,,2013-02-13 09:31:00,
2013-02-13 01:41:00,48.0,42.0,29.80,SW,225,2.0,2.0,79,0.00,,,0.03,,2013-02-13 09:41:00,
2013-02-13 01:51:00,48.0,42.0,29.80,SW,225,2.0,2.0,79,0.00,,,0.03,,2013-02-13 09:51:00,
2013-02-13 02:01:00,48.0,42.0,29.80,NW,315,2.0,2.0,80,0.00,,,0.03,,2013-02-13 10:01:00,
2013-02-13 02:11:00,48.0,42.0,29.79,West,270,2.0,4.0,81,0.00,,,0.03,,2013-02-13 10:11:00,
2013-02-13 02:21:00,48.0,42.0,29.79,West,270,2.0,4.0,81,0.00,,,0.03,,2013-02-13 10:21:00,
2013-02-13 02:31:00,48.0,43.0,29.81,SSW,203,3.0,5.0,84,0.00,,,0.03,,2013-02-13 10:31:00,
2013-02-13 02:41:00,48.0,44.0,29.81,NNW,338,1.0,3.0,86,0.02,,,0.05,,2013-02-13 10:41:00,
2013-02-13 02:51:00,48.0,44.0,29.81,NNW,338,1.0,3.0,86,0.02,,,0.05,,2013-02-13 10:51:00,
2013-02-13 03:01:00,47.0,43.0,29.81,South,180,3.0,6.0,87,0.02,,,0.05,,2013-02-13 11:01:00,
2013-02-13 03:11:00,47.0,43.0,29.81,South,180,3.0,6.0,87,0.02,,,0.05,,2013-02-13 11:11:00,
2013-02-13 03:22:00,47.0,43.0,29.81,West,270,1.0,2.0,87,0.02,,,0.05,,2013-02-13 11:22:00,
2013-02-13 03:31:00,47.0,44.0,29.81,East,90,1.0,7.0,88,0.02,,,0.05,,2013-02-13 11:31:00,
2013-02-13 03:41:00,47.0,44.0,29.81,WNW,293,3.0,3.0,88,0.00,,,0.05,,2013-02-13 11:41:00,
2013-02-13 03:52:00,47.0,44.0,29.81,WNW,293,3.0,3.0,88,0.00,,,0.05,,2013-02-13 11:52:00,
2013-02-13 04:02:00,47.0,43.0,29.81,WNW,293,2.0,3.0,86,0.00,,,0.05,,2013-02-13 12:02:00,
2013-02-13 04:11:00,47.0,43.0,29.81,SSE,158,1.0,4.0,86,0.00,,,0.05,,2013-02-13 12:11:00,
2013-02-13 04:21:00,47.0,43.0,29.81,SSE,158,1.0,4.0,86,0.00,,,0.05,,2013-02-13 12:21:00,
2013-02-13 04:31:00,47.0,43.0,29.81,SW,225,1.0,3.0,86,0.00,,,0.02,,2013-02-13 12:31:00,
2013-02-13 04:42:00,46.0,42.0,29.82,East,90,1.0,2.0,85,0.00,,,0.02,,2013-02-13 12:42:00,
2013-02-13 04:52:00,46.0,42.0,29.82,East,90,1.0,2.0,85,0.00,,,0.02,,2013-02-13 12:52:00,
2013-02-13 05:02:00,46.0,41.0,29.83,West,270,1.0,3.0,83,0.00,,,0.02,,2013-02-13 13:02:00,
2013-02-13 05:11:00,45.0,39.0,29.83,SSW,203,1.0,3.0,80,0.00,,,0.02,,2013-02-13 13:11:00,
2013-02-13 05:21:00,45.0,39.0,29.83,SSW,203,1.0,3.0,80,0.00,,,0.02,,2013-02-13 13:21:00,
2013-02-13 05:31:00,45.0,40.0,29.84,East,90,1.0,1.0,81,0.00,,,0.02,,2013-02-13 13:31:00,
2013-02-13 05:41:00,45.0,39.0,29.84,SW,225,1.0,3.0,80,0.00,,,0.02,,2013-02-13 13:41:00,
2013-02-13 05:52:00,45.0,39.0,29.84,SW,225,1.0,3.0,80,0.00,,,0.02,,2013-02-13 13:52:00,
2013-02-13 06:01:00,44.0,38.0,29.83,SE,135,0.0,1.0,80,0.00,,,0.02,,2013-02-13 14:01:00,
2013-02-13 06:11:00,44.0,38.0,29.83,SE,135,0.0,1.0,80,0.00,,,0.02,,2013-02-13 14:11:00,
2013-02-13 06:21:00,44.0,38.0,29.84,ENE,68,1.0,2.0,80,0.00,,,0.02,,2013-02-13 14:21:00,
2013-02-13 06:31:00,44.0,38.0,29.84,ESE,113,1.0,2.0,80,0.00,,,0.02,,2013-02-13 14:31:00,
2013-02-13 06:41:00,44.0,38.0,29.83,SSW,203,1.0,2.0,80,0.00,,,0.02,,2013-02-13 14:41:00,
2013-02-13 06:52:00,44.0,38.0,29.83,SSW,203,1.0,2.0,80,0.00,,,0.02,,2013-02-13 14:52:00,
2013-02-13 07:01:00,44.0,38.0,29.85,ESE,113,0.0,2.0,79,0.00,,,0.02,,2013-02-13 15:01:00,
2013-02-13 07:11:00,44.0,38.0,29.85,ESE,113,1.0,3.0,78,0.00,,,0.02,,2013-02-13 15:11:00,
2013-02-13 07:21:00,44.0,38.0,29.85,ESE,113,1.0,3.0,78,0.00,,,0.02,,2013-02-13 15:21:00,
2013-02-13 07:31:00,44.0,38.0,29.85,NNE,23,1.0,2.0,78,0.00,,,0.02,,2013-02-13 15:31:00,
2013-02-13 07:41:00,44.0,38.0,29.85,NNE,23,1.0,2.0,78,0.00,,,0.02,,2013-02-13 15:41:00,
2013-02-13 07:52:00,44.0,37.0,29.86,South,180,0.0,2.0,77,0.00,,,0.02,,2013-02-13 15:52:00,
2013-02-13 08:01:00,44.0,37.0,29.86,South,180,1.0,3.0,77,0.00,,,0.02,,2013-02-13 16:01:00,
2013-02-13 08:11:00,45.0,38.0,29.86,NNW,338,1.0,2.0,76,0.00,,,0.02,,2013-02-13 16:11:00,
2013-02-13 08:21:00,45.0,38.0,29.86,NNW,338,1.0,2.0,76,0.00,,,0.02,,2013-02-13 16:21:00,
2013-02-13 08:31:00,45.0,38.0,29.86,SE,135,0.0,1.0,76,0.00,,,0.02,,2013-02-13 16:31:00,
2013-02-13 08:41:00,45.0,38.0,29.86,SE,135,0.0,1.0,76,0.00,,,0.02,,2013-02-13 16:41:00,
2013-02-13 08:52:00,45.0,38.0,29.86,SSE,158,0.0,1.0,76,0.00,,,0.02,,2013-02-13 16:52:00,
2013-02-13 09:01:00,45.0,38.0,29.88,South,180,1.0,3.0,76,0.00,,,0.02,,2013-02-13 17:01:00,
2013-02-13 09:11:00,45.0,38.0,29.88,South,180,1.0,3.0,76,0.00,,,0.02,,2013-02-13 17:11:00,
2013-02-13 09:21:00,45.0,38.0,29.88,ESE,113,2.0,2.0,75,0.00,,,0.02,,2013-02-13 17:21:00,
2013-02-13 09:31:00,45.0,37.0,29.88,SSW,203,2.0,3.0,74,0.00,,,0.02,,2013-02-13 17:31:00,
2013-02-13 09:41:00,45.0,37.0,29.88,SSW,203,2.0,3.0,74,0.00,,,0.02,,2013-02-13 17:41:00,
2013-02-13 09:52:00,45.0,37.0,29.88,South,180,1.0,4.0,74,0.00,,,0.02,,2013-02-13 17:52:00,
2013-02-13 10:01:00,46.0,37.0,29.89,SSW,203,1.0,5.0,72,0.00,,,0.02,,2013-02-13 18:01:00,
2013-02-13 10:11:00,46.0,38.0,29.90,ESE,113,1.0,2.0,73,0.00,,,0.02,,2013-02-13 18:11:00,
2013-02-13 10:22:00,46.0,38.0,29.90,ESE,113,1.0,2.0,73,0.00,,,0.02,,2013-02-13 18:22:00,
2013-02-13 10:31:00,46.0,37.0,29.90,ENE,68,2.0,2.0,72,0.00,,,0.02,,2013-02-13 18:31:00,
2013-02-13 10:41:00,46.0,37.0,29.90,ENE,68,2.0,2.0,72,0.00,,,0.02,,2013-02-13 18:41:00,
2013-02-13 10:52:00,46.0,37.0,29.90,SW,225,1.0,2.0,71,0.00,,,0.02,,2013-02-13 18:52:00,
2013-02-13 11:01:00,46.0,37.0,29.90,South,180,1.0,2.0,71,0.00,,,0.02,,2013-02-13 19:01:00,
2013-02-13 11:11:00,46.0,37.0,29.90,ENE,68,1.0,4.0,70,0.00,,,0.02,,2013-02-13 19:11:00,
2013-02-13 11:21:00,46.0,37.0,29.90,ENE,68,1.0,4.0,70,0.00,,,0.02,,2013-02-13 19:21:00,
2013-02-13 11:31:00,46.0,37.0,29.90,WSW,248,1.0,2.0,70,0.00,,,0.02,,2013-02-13 19:31:00,
2013-02-13 11:41:00,46.0,37.0,29.90,WSW,248,1.0,2.0,70,0.00,,,0.02,,2013-02-13 19:41:00,
2013-02-13 11:52:00,46.0,37.0,29.90,West,270,1.0,3.0,70,0.00,,,0.02,,2013-02-13 19:52:00,
2013-02-13 12:01:00,46.0,37.0,29.90,West,270,1.0,3.0,70,0.00,,,0.02,,2013-02-13 20:01:00,
2013-02-13 12:11:00,47.0,37.0,29.91,SSW,203,2.0,4.0,69,0.00,,,0.02,,2013-02-13 20:11:00,
2013-02-13 12:21:00,47.0,37.0,29.91,SSW,203,2.0,4.0,69,0.00,,,0.02,,2013-02-13 20:21:00,
2013-02-13 12:31:00,47.0,37.0,29.91,ESE,113,1.0,4.0,69,0.00,,,0.02,,2013-02-13 20:31:00,
2013-02-13 12:42:00,47.0,37.0,29.90,SSE,158,2.0,5.0,69,0.00,,,0.02,,2013-02-13 20:42:00,
2013-02-13 12:52:00,47.0,37.0,29.90,SSE,158,2.0,5.0,69,0.00,,,0.02,,2013-02-13 20:52:00,
2013-02-13 13:01:00,47.0,38.0,29.89,ESE,113,1.0,2.0,70,0.00,,,0.02,,2013-02-13 21:01:00,
2013-02-13 13:11:00,47.0,38.0,29.89,ESE,113,1.0,2.0,70,0.00,,,0.02,,2013-02-13 21:11:00,
2013-02-13 13:21:00,47.0,37.0,29.90,SW,225,1.0,3.0,69,0.00,,,0.02,,2013-02-13 21:21:00,
2013-02-13 13:31:00,48.0,38.0,29.90,West,270,1.0,3.0,68,0.00,,,0.02,,2013-02-13 21:31:00,
2013-02-13 13:42:00,47.0,36.0,29.89,West,270,2.0,3.0,66,0.00,,,0.02,,2013-02-13 21:42:00,
2013-02-13 13:52:00,47.0,36.0,29.89,West,270,2.0,3.0,66,0.00,,,0.02,,2013-02-13 21:52:00,
2013-02-13 14:01:00,48.0,38.0,29.90,SSW,203,2.0,2.0,67,0.00,,,0.02,,2013-02-13 22:01:00,
2013-02-13 14:11:00,49.0,38.0,29.90,NNE,23,1.0,3.0,66,0.00,,,0.02,,2013-02-13 22:11:00,
2013-02-13 14:21:00,49.0,38.0,29.90,NNE,23,1.0,3.0,66,0.00,,,0.02,,2013-02-13 22:21:00,
2013-02-13 14:31:00,48.0,37.0,29.90,ESE,113,1.0,3.0,65,0.00,,,0.02,,2013-02-13 22:31:00,
2013-02-13 14:42:00,48.0,37.0,29.90,ESE,113,1.0,3.0,65,0.00,,,0.02,,2013-02-13 22:42:00,
2013-02-13 14:52:00,48.0,37.0,29.89,West,270,1.0,2.0,66,0.00,,,0.02,,2013-02-13 22:52:00,
2013-02-13 15:01:00,48.0,38.0,29.89,SW,225,0.0,0.0,67,0.00,,,0.02,,2013-02-13 23:01:00,
2013-02-13 15:11:00,48.0,37.0,29.89,WNW,293,1.0,4.0,66,0.00,,,0.02,,2013-02-13 23:11:00,
2013-02-13 15:21:00,48.0,37.0,29.89,WNW,293,1.0,4.0,66,0.00,,,0.02,,2013-02-13 23:21:00,
2013-02-13 15:31:00,48.0,38.0,29.89,WNW,293,0.0,2.0,67,0.00,,,0.02,,2013-02-13 23:31:00,
2013-02-13 15:41:00,48.0,38.0,29.89,WNW,293,0.0,2.0,67,0.00,,,0.02,,2013-02-13 23:41:00,
2013-02-13 15:52:00,48.0,38.0,29.89,East,90,0.0,1.0,68,0.00,,,0.02,,2013-02-13 23:52:00,
2013-02-13 16:01:00,48.0,38.0,29.90,SSE,158,0.0,0.0,68,0.00,,,0.02,,2013-02-14 00:01:00,
2013-02-13 16:11:00,48.0,38.0,29.90,SSE,158,0.0,0.0,68,0.00,,,0.02,,2013-02-14 00:11:00,
2013-02-13 16:21:00,48.0,38.0,29.90,WNW,293,0.0,0.0,68,0.00,,,0.02,,2013-02-14 00:21:00,
2013-02-13 16:31:00,48.0,38.0,29.90,SE,135,0.0,0.0,68,0.00,,,0.02,,2013-02-14 00:31:00,
2013-02-13 16:41:00,48.0,38.0,29.90,SE,135,0.0,0.0,68,0.00,,,0.02,,2013-02-14 00:41:00,
2013-02-13 16:52:00,48.0,38.0,29.90,SE,135,0.0,0.0,69,0.00,,,0.02,,2013-02-14 00:52:00,
2013-02-13 17:01:00,48.0,38.0,29.90,SSW,203,0.0,0.0,69,0.00,,,0.02,,2013-02-14 01:01:00,
2013-02-13 17:11:00,48.0,38.0,29.90,SSW,203,0.0,0.0,69,0.00,,,0.02,,2013-02-14 01:11:00,
2013-02-13 17:21:00,48.0,38.0,29.91,SW,225,0.0,0.0,69,0.00,,,0.02,,2013-02-14 01:21:00,
2013-02-13 17:31:00,47.0,38.0,29.91,South,180,0.0,0.0,70,0.00,,,0.02,,2013-02-14 01:31:00,
2013-02-13 17:41:00,47.0,38.0,29.91,South,180,0.0,0.0,70,0.00,,,0.02,,2013-02-14 01:41:00,
2013-02-13 17:51:00,47.0,38.0,29.90,South,180,0.0,0.0,70,0.00,,,0.02,,2013-02-14 01:51:00,
2013-02-13 18:01:00,47.0,38.0,29.90,West,270,0.0,1.0,71,0.00,,,0.02,,2013-02-14 02:01:00,
2013-02-13 18:11:00,47.0,38.0,29.91,SE,135,0.0,0.0,71,0.00,,,0.02,,2013-02-14 02:11:00,
2013-02-13 18:21:00,47.0,38.0,29.91,SE,135,0.0,0.0,71,0.00,,,0.02,,2013-02-14 02:21:00,
2013-02-13 18:31:00,47.0,38.0,29.91,ESE,113,0.0,0.0,72,0.00,,,0.02,,2013-02-14 02:31:00,
2013-02-13 18:41:00,47.0,38.0,29.91,ESE,113,0.0,0.0,72,0.00,,,0.02,,2013-02-14 02:41:00,
2013-02-13 18:51:00,47.0,38.0,29.91,ESE,113,0.0,0.0,72,0.00,,,0.02,,2013-02-14 02:51:00,
2013-02-13 19:02:00,47.0,39.0,29.90,South,180,0.0,0.0,73,0.00,,,0.02,,2013-02-14 03:02:00,
2013-02-13 19:11:00,47.0,39.0,29.92,SSW,203,0.0,1.0,74,0.00,,,0.02,,2013-02-14 03:11:00,
2013-02-13 19:21:00,47.0,39.0,29.92,SSW,203,0.0,1.0,74,0.00,,,0.02,,2013-02-14 03:21:00,
2013-02-13 19:31:00,47.0,39.0,29.92,East,90,0.0,2.0,75,0.00,,,0.02,,2013-02-14 03:31:00,
2013-02-13 19:42:00,47.0,39.0,29.92,East,90,0.0,2.0,75,0.00,,,0.02,,2013-02-14 03:42:00,
2013-02-13 19:52:00,47.0,39.0,29.93,SSW,203,0.0,0.0,75,0.00,,,0.02,,2013-02-14 03:52:00,
2013-02-13 20:01:00,46.0,39.0,29.92,SE,135,0.0,0.0,75,0.00,,,0.02,,2013-02-14 04:01:00,
2013-02-13 20:11:00,47.0,40.0,29.93,SE,135,1.0,2.0,76,0.00,,,0.02,,2013-02-14 04:11:00,
2013-02-13 20:21:00,47.0,40.0,29.93,SE,135,1.0,2.0,76,0.00,,,0.02,,2013-02-14 04:21:00,
2013-02-13 20:31:00,46.0,39.0,29.93,ESE,113,1.0,2.0,76,0.00,,,0.02,,2013-02-14 04:31:00,
2013-02-13 20:41:00,46.0,39.0,29.93,ESE,113,1.0,2.0,76,0.00,,,0.02,,2013-02-14 04:41:00,
2013-02-13 20:51:00,46.0,39.0,29.93,ESE,113,1.0,2.0,76,0.00,,,0.02,,2013-02-14 04:51:00,
2013-02-13 21:01:00,46.0,39.0,29.93,ESE,113,1.0,2.0,77,0.00,,,0.02,,2013-02-14 05:01:00,
2013-02-13 21:11:00,46.0,39.0,29.93,ESE,113,1.0,2.0,77,0.00,,,0.02,,2013-02-14 05:11:00,
2013-02-13 21:21:00,46.0,40.0,29.93,East,90,1.0,2.0,78,0.00,,,0.02,,2013-02-14 05:21:00,
2013-02-13 21:31:00,46.0,40.0,29.93,ESE,113,1.0,3.0,79,0.00,,,0.02,,2013-02-14 05:31:00,
2013-02-13 21:41:00,46.0,40.0,29.93,ESE,113,1.0,3.0,79,0.00,,,0.02,,2013-02-14 05:41:00,
2013-02-13 21:52:00,46.0,40.0,29.93,ESE,113,1.0,2.0,79,0.00,,,0.02,,2013-02-14 05:52:00,
2013-02-13 22:01:00,46.0,40.0,29.94,SE,135,1.0,2.0,80,0.00,,,0.02,,2013-02-14 06:01:00,
2013-02-13 22:11:00,46.0,40.0,29.95,East,90,0.0,2.0,80,0.00,,,0.02,,2013-02-14 06:11:00,
2013-02-13 22:21:00,46.0,40.0,29.95,East,90,0.0,2.0,80,0.00,,,0.02,,2013-02-14 06:21:00,
2013-02-13 22:31:00,46.0,41.0,29.95,SSW,203,1.0,2.0,81,0.00,,,0.02,,2013-02-14 06:31:00,
2013-02-13 22:41:00,46.0,41.0,29.95,SSW,203,1.0,2.0,81,0.00,,,0.02,,2013-02-14 06:41:00,
2013-02-13 22:51:00,46.0,41.0,29.95,East,90,0.0,0.0,82,0.00,,,0.02,,2013-02-14 06:51:00,
2013-02-13 23:01:00,46.0,41.0,29.95,NNE,23,1.0,2.0,83,0.00,,,0.02,,2013-02-14 07:01:00,
2013-02-13 23:11:00,46.0,41.0,29.95,ESE,113,0.0,1.0,84,0.00,,,0.02,,2013-02-14 07:11:00,
2013-02-13 23:21:00,46.0,41.0,29.95,ESE,113,0.0,1.0,84,0.00,,,0.02,,2013-02-14 07:21:00,
2013-02-13 23:31:00,46.0,42.0,29.95,WNW,293,0.0,0.0,85,0.00,,,0.02,,2013-02-14 07:31:00,
2013-02-13 23:41:00,46.0,42.0,29.95,WNW,293,0.0,0.0,85,0.00,,,0.02,,2013-02-14 07:41:00,
2013-02-13 23:52:00,46.0,42.0,29.96,East,90,0.0,1.0,85,0.00,,,0.02,,2013-02-14 07:52:00,